Home   Weather   Fortaleza   Past weeks

Flag for Brazil Past Weather in Fortaleza, Ceará, Brazil — Yesterday and Last 2 Weeks

Now
84 °F

Partly sunny.


Feels Like: 90 °F
Forecast: 78 / 88 °F
Wind: 15 mph from East

Location: Fortaleza Aeropor-To

Current Time: Dec 4, 2016 at 11:11:39 am

Latest Report: Dec 4, 2016 at 10:00 am


Visibility: N/A

Pressure: 29.89 "Hg

Humidity: 66%

Dew Point: 72 °F

Location of FortalezaLocation

Past Weather in Fortaleza — Graph

°F

Fortaleza Temperature Yesterday

Maximum temperature yesterday: 88 °F (at 12:00 pm)
Minimum temperature yesterday: 79 °F (at 2:00 am)
Average temperature yesterday: 82 °F

High & Low Weather Summary for the Past Weeks

 TemperatureHumidityPressure
High90 °F (Nov 23, 11:00 am)84% (Nov 20, 4:00 am)30.07 "Hg (Nov 20, 4:00 am)
Low77 °F (Dec 4, 4:00 am)49% (Nov 27, 12:00 pm)29.77 "Hg (Nov 19, 2:00 pm)
Average83 °F70%29.86 "Hg
* Reported Nov 19 10:00 am — Dec 4 10:00 am, Fortaleza, Weather by CustomWeather, © 2016

Note: Actual official high and low records may vary slightly from our data, if they occured in-between our weather recording intervals... More about our weather records

Advertising

Fortaleza Weather History for the Previous 24 Hours

Scroll right to see more
 ConditionsComfort  
Time TempWeatherWind HumidityBarometerVisibility
10:00 am
Sun, Dec 4
84 °FPartly sunny.15 mph66%29.89 "HgN/A
9:00 am84 °FPartly sunny.15 mph66%29.89 "HgN/A
8:00 am82 °FPartly sunny.15 mph70%29.89 "HgN/A
7:00 am81 °FScattered clouds.12 mph74%29.89 "HgN/A
6:00 am79 °FPassing clouds.8 mph74%29.86 "HgN/A
5:00 am79 °FPassing clouds.8 mph79%29.86 "HgN/A
4:00 am77 °FPassing clouds.7 mph83%29.83 "HgN/A
3:00 am79 °FPassing clouds.10 mph79%29.83 "HgN/A
2:00 am79 °FPassing clouds.10 mph79%29.83 "HgN/A
1:00 am79 °FPassing clouds.10 mph79%29.86 "HgN/A
12:00 am81 °FPassing clouds.9 mph74%29.89 "HgN/A
11:00 pm
Sat, Dec 3
81 °FPassing clouds.10 mph74%29.89 "HgN/A
10:00 pm81 °FPassing clouds.9 mph74%29.89 "HgN/A
9:00 pm81 °FPassing clouds.9 mph74%29.89 "HgN/A
8:00 pm81 °FPassing clouds.10 mph74%29.89 "HgN/A
7:00 pm81 °FPassing clouds.10 mph74%29.86 "HgN/A
6:00 pm81 °FPassing clouds.10 mph74%29.86 "HgN/A
5:00 pm82 °FPassing clouds.12 mph66%29.83 "HgN/A
4:00 pm84 °FPassing clouds.14 mph62%29.83 "HgN/A
3:00 pm86 °FScattered clouds.17 mph59%29.83 "HgN/A
2:00 pm86 °FPartly sunny.15 mph62%29.83 "HgN/A
1:00 pm86 °FScattered clouds.16 mph59%29.86 "HgN/A
12:00 pm88 °FScattered clouds.17 mph55%29.86 "HgN/A
11:00 am86 °FScattered clouds.15 mph59%29.89 "HgN/A
Weather by CustomWeather, © 2016

See weather overviewHow to use our weather pages